sat.trackr.live / text

‹ back to catalog

LEMUR-2-LEIA-PHILIP

NORAD 63246 · 2025-052AN

PAYLOAD ACTIVE UNKNOWN

§ Identity

Operator
Country
US
Launch date
2025-03-15
Launch site
AFWTR
Launch vehicle
Mass (kg)
RCS (m²)

Purposes: earth_obs

External: N2YO · Heavens-Above · Gunter

§ Orbital elements

Epoch: 2026-09-19T22:57:54.424224Z

Period
96.15 min
Inclination
97.6675°
Eccentricity
0.0002673
Mean motion
14.97620401 rev/d
Perigee alt
572.4 km
Apogee alt
576.1 km
Semi-major
6,952.4 km
B*
1.6704e-4
RAAN
153.2556°
Arg perigee
274.2937°
Mean anomaly
85.7979°
Rev number
8,285

§ Raw data

LEMUR-2-LEIA-PHILIP1 63246U 25052AN  26262.95687991  .00001895  00000+0  16704-3 0  99902 63246  97.6675 153.2556 0002673 274.2937  85.7979 14.97620401 82854

JSON: /api/v1/satellites/63246 · /tle

For live sub-satellite position, see the globe view (requires WebGL).

§ Visibility from observer

Set your observer location to see the next 7 days of passes ≥ 10°. The values pass through the URL so the page stays shareable.

No JS? Fill the form by hand. The geolocation button needs JavaScript.